Location: Dallas
(32.7833°N, 96.8000°W)
Time: 13:21:32
(UTC-06:00)

Envisat - Pass Details

Date: 09 December 2021
Orbit: 764 x 766 km, 98.2° (Epoch: 28 January)

Event Time Altitude Azimuth Distance (km) Brightness Sun altitude
Rises 04:50:03 0° 21° (NNE) 3,235 6.4 -30.4°
Reaches altitude 10° 04:52:30 10° 29° (NNE) 2,305 5.7 -29.9°
Maximum altitude 04:57:16 41° 99° (E) 1,103 4.2 -28.9°
Drops below altitude 10° 05:02:01 10° 169° (SSE) 2,291 5.7 -27.9°
Sets 05:04:26 0° 176° (S) 3,213 6.4 -27.4°
